Location: Marsån
(66.4167°N, 22.2833°E)
Time: 11:19:35
(UTC+00:00)

Cosmos 1812 Rocket - Pass Details

Date: 24 February 2024
Orbit: 604 x 627 km, 82.5° (Epoch: 15 April)

Event Time Altitude Azimuth Distance (km) Brightness Sun altitude
Rises 16:30:00 0° 341° (NNW) 2,877 7.1 -7.3°
Reaches altitude 10° 16:32:14 10° 340° (NNW) 1,970 6.3 -7.5°
Maximum altitude 16:36:34 73° 256° (WSW) 642 3.9 -7.9°
Drops below altitude 10° 16:40:54 10° 173° (S) 1,965 6.1 -8.4°
Sets 16:43:07 0° 171° (S) 2,869 6.9 -8.6°
